Temperature
3 3 3 3 3 3 3 3 2 2 3 3 3 4 3 4 4 4 4 4 5 5 5 5 5 5 5 4 5 5 5 4 4 4 4 4 4 4
3 3 2 3 3 3 3 3 2 2 2 2 3 3 3 3 3 3 4 4 4 4 4 4 4 4 4 4 4 4 4 4 4 4 4 4 4 4
2 2 2 2 2 2 2 2 2 2 2 2 2 3 3 3 3 3 3 3 4 4 3 3 3 4 4 4 4 4 3 3 3 3 3 4 4 4
2 2 2 2 2 2 2 2 2 2 2 2 2 2 2 2 3 3 3 3 3 3 3 3 3 3 3 3 3 3 3 3 3 3 3 3 3 3
1 1 1 1 1 1 1 1 1 1 1 1 1 1 2 2 2 2 2 2 2 3 3 3 3 3 3 3 3 3 3 3 3 2 2 2 3 3
1 1 1 1 1 1 1 1 1 1 1 1 1 1 1 2 2 2 2 2 2 2 2 2 2 2 2 2 2 2 2 2 2 2 2 2 2 2
0 0 0 0 0 0 0 1 1 1 0 0 0 1 1 1 1 1 1 1 1 1 1 2 2 2 2 2 2 2 2 2 2 1 1 1 1 2
-0 -0 -0 -1 -0 -0 0 0 0 0 0 0 0 0 1 1 0 0 0 0 -0 0 0 1 1 1 1 1 1 1 1 1 1 1 1 1 1 1
-1 -1 -1 -1 -1 -1 -0 -0 -0 0 0 0 0 0 0 0 0 -0 -0 -0 -0 -0 -0 -0 0 0 0 1 1 1 0 0 1 1 1 0 0 1
-1 -1 -1 -1 -1 -1 -1 -1 -0 -0 -0 -0 -0 -0 -0 -0 -0 -0 -1 -1 -1 -1 -1 -1 -1 -1 0 0 0 0 -0 0 0 0 0 0 0 0
-1 -1 -1 -1 -1 -1 -1 -1 -1 -1 -0 -0 -0 -0 -0 -0 -0 -1 -1 -1 -1 -1 -1 -1 -1 -1 -1 -0 -0 -0 -0 -0 -0 -0 -0 -0 0 0
-2 -2 -2 -2 -2 -1 -1 -1 -1 -1 -1 -1 -1 -1 -1 -1 -1 -1 -1 -1 -2 -2 -1 -2 -2 -2 -2 -1 -1 -1 -1 -1 -1 -1 -0 -0 0 -0
-2 -2 -2 -2 -2 -2 -1 -2 -2 -1 -1 -1 -1 -1 -1 -1 -1 -1 -1 -2 -2 -2 -2 -2 -2 -2 -2 -2 -2 -1 -1 -1 -1 -1 -1 -1 -0 -0
-2 -2 -2 -2 -2 -2 -2 -2 -2 -2 -2 -2 -2 -2 -1 -1 -2 -2 -2 -2 -2 -2 -2 -2 -2 -2 -3 -3 -3 -2 -2 -2 -2 -1 -1 -1 -1 -0
-2 -2 -2 -2 -2 -2 -2 -2 -2 -2 -2 -2 -2 -2 -2 -2 -2 -2 -2 -2 -2 -2 -2 -2 -2 -2 -2 -3 -3 -2 -2 -2 -2 -2 -2 -1 -1 -1
-3 -3 -3 -2 -2 -2 -3 -3 -3 -3 -3 -3 -3 -2 -2 -2 -2 -2 -2 -2 -2 -2 -2 -2 -2 -3 -3 -2 -2 -3 -3 -3 -3 -2 -2 -1 -1 -1
-3 -3 -3 -3 -3 -3 -3 -3 -3 -3 -3 -3 -3 -3 -3 -3 -3 -3 -3 -3 -3 -3 -3 -3 -3 -3 -2 -2 -2 -3 -3 -3 -3 -2 -2 -1 -1 -1
-3 -3 -3 -3 -3 -3 -3 -3 -3 -3 -3 -3 -3 -3 -3 -3 -3 -3 -3 -3 -3 -3 -3 -3 -3 -3 -3 -3 -3 -3 -3 -3 -3 -2 -2 -2 -1 -1
-4 -3 -3 -3 -3 -3 -3 -3 -4 -4 -4 -4 -4 -4 -4 -3 -4 -3 -4 -4 -4 -3 -4 -4 -4 -4 -4 -4 -3 -3 -3 -3 -3 -2 -2 -2 -2 -2
-4 -4 -4 -4 -4 -4 -4 -4 -4 -4 -4 -4 -4 -4 -4 -4 -4 -4 -4 -4 -4 -4 -4 -4 -4 -4 -4 -4 -4 -3 -3 -3 -3 -3 -3 -2 -2 -2
-4 -4 -4 -4 -4 -4 -4 -4 -4 -4 -4 -4 -4 -4 -4 -4 -4 -4 -4 -4 -4 -4 -4 -4 -4 -4 -4 -4 -4 -3 -3 -3 -3 -4 -3 -3 -3 -2
-4 -4 -4 -4 -4 -4 -4 -4 -4 -4 -4 -4 -4 -4 -4 -4 -4 -4 -5 -4 -4 -4 -4 -4 -4 -4 -4 -4 -4 -4 -4 -3 -3 -3 -3 -3 -3 -3
-5 -5 -5 -5 -5 -5 -4 -4 -4 -4 -4 -5 -5 -4 -4 -4 -4 -5 -5 -4 -4 -4 -4 -4 -4 -4 -4 -4 -4 -4 -4 -4 -3 -3 -3 -3 -3 -3
Wind_Speed
5 5 4 4 4 5 5 6 5 5 5 5 3 3 4 4 5 5 5 5 6 6 6 7 7 7 8 9 11 8 8 8 8 8 9 9 10 10
4 5 4 4 4 4 5 5 6 6 5 5 4 4 4 4 5 5 5 5 5 5 5 6 7 7 8 9 9 8 8 8 8 8 9 9 9 10
4 5 5 5 4 4 4 4 4 4 6 6 5 5 5 4 4 4 4 4 4 4 5 6 7 7 7 6 7 8 8 8 8 8 8 8 9 9
5 5 5 4 5 4 4 4 4 5 5 6 5 5 5 4 3 3 3 4 3 4 5 6 7 6 6 6 6 7 7 7 7 7 7 8 9 8
5 5 5 5 5 4 4 4 4 4 4 5 5 4 4 3 3 3 4 3 4 4 4 4 4 5 6 6 6 6 7 7 6 6 7 8 8 8
4 5 5 5 5 5 4 4 4 4 3 4 4 4 3 3 2 2 3 3 3 3 3 4 4 4 5 5 5 6 6 6 6 7 7 8 8 8
4 5 4 4 5 4 4 4 4 3 3 3 4 3 3 2 2 2 3 3 4 3 3 4 4 3 4 4 5 5 6 7 7 7 8 8 8 8
4 4 4 4 4 3 4 4 5 5 4 4 4 4 3 2 2 2 2 2 3 2 3 5 4 4 4 4 6 6 7 7 7 7 7 8 7 7
4 4 3 3 4 3 3 4 4 4 5 5 5 4 4 3 2 2 2 3 3 3 3 4 4 4 4 5 6 6 7 7 7 7 7 8 8 8
4 4 4 3 3 3 3 3 3 3 3 4 4 4 3 3 3 2 2 2 3 3 3 3 4 4 5 5 5 6 7 7 7 7 7 8 8 8
3 3 3 4 3 3 3 3 3 2 2 2 3 2 1 1 1 1 1 1 3 3 3 2 3 5 5 4 4 6 7 7 6 6 7 8 8 7
2 2 3 3 3 2 3 3 3 3 2 2 1 0 0 0 1 2 2 2 2 2 2 1 2 3 2 3 5 6 5 6 7 7 7 7 7 5
2 2 2 2 2 2 2 2 2 1 1 1 1 0 1 1 1 2 2 2 2 2 2 2 2 3 2 3 5 6 5 6 6 6 6 7 7 6
2 2 2 1 1 1 1 1 0 0 1 1 1 1 1 2 2 2 3 3 3 2 3 3 2 3 3 4 4 4 5 6 5 5 5 6 6 6
2 1 1 1 1 1 0 0 0 1 1 1 1 1 2 2 2 2 3 3 4 4 3 3 2 3 3 3 3 4 5 5 4 5 5 5 4 4
1 1 1 1 1 0 0 1 1 1 1 1 1 1 1 1 1 2 2 2 3 3 5 5 3 3 3 3 3 3 4 3 4 5 5 4 4 4
1 1 1 1 1 1 1 1 1 1 1 1 1 1 1 1 2 2 2 2 2 2 3 4 5 4 3 2 2 2 3 3 4 4 4 4 3 3
2 2 2 2 2 2 2 1 1 1 1 1 1 1 1 1 1 2 2 1 1 2 2 3 3 3 3 2 2 2 3 4 4 5 4 3 3 4
3 2 2 2 2 2 2 2 2 1 1 1 1 1 0 0 0 1 1 1 1 2 2 3 3 3 3 3 3 3 4 4 4 4 4 3 3 3
2 2 2 2 2 2 2 2 2 1 1 1 1 1 1 1 0 1 1 0 1 1 2 3 3 4 3 3 2 4 6 4 3 4 4 3 3 3
2 2 2 2 2 2 2 2 1 1 1 1 1 1 1 1 0 0 0 0 1 1 2 3 4 5 3 2 2 3 5 6 5 4 3 2 2 2
2 2 2 2 2 2 2 2 2 2 2 1 1 1 1 1 1 1 0 0 0 1 2 2 3 3 3 2 2 3 4 6 7 7 6 4 2 1
2 2 2 1 1 1 2 2 2 2 2 2 1 1 1 1 1 0 0 0 0 1 1 2 3 3 3 2 2 2 4 5 5 5 5 7 6 4
Wind_Direction
242 241 248 251 251 253 249 247 253 264 271 270 270 273 289 291 290 291 292 294 297 298 303 307 309 309 308 311 316 309 311 307 300 300 301 300 297 297
249 248 251 255 252 250 254 254 249 254 265 275 279 285 286 288 290 290 291 298 298 299 303 307 310 307 312 313 315 314 313 310 306 299 300 302 299 298
251 252 257 260 254 255 252 249 245 249 261 277 282 289 282 285 292 295 301 300 300 301 300 304 306 307 310 317 321 321 317 314 311 308 310 310 308 304
250 253 256 253 250 254 250 248 247 249 253 269 280 286 286 288 294 299 310 308 309 310 303 305 308 317 322 322 330 330 326 322 322 320 318 314 311 307
252 251 252 247 245 249 251 253 252 255 258 263 275 287 289 293 306 314 315 312 313 308 309 316 327 334 335 337 337 335 330 324 321 321 321 320 318 313
254 256 255 251 249 249 251 252 251 255 255 256 268 281 283 297 299 312 324 329 326 331 332 330 327 329 330 331 334 336 328 325 323 323 324 322 320 317
251 255 254 258 266 259 253 247 245 244 247 247 257 270 276 289 297 316 312 327 328 329 328 327 330 331 328 326 328 332 330 326 326 325 324 324 324 321
249 258 261 255 259 266 276 274 262 248 244 241 251 252 263 284 299 299 304 314 316 330 326 323 328 325 328 335 336 332 331 329 331 332 331 330 329 323
245 250 255 256 258 250 255 267 276 281 269 248 244 254 257 266 269 270 279 291 296 304 316 312 321 320 328 332 333 332 335 336 337 338 339 333 326 322
247 248 251 255 253 251 257 258 269 277 272 259 255 265 269 260 250 248 267 298 312 320 312 293 312 319 324 331 338 338 339 339 341 343 339 333 325 321
253 255 254 249 251 252 253 250 262 277 296 292 285 281 273 273 274 214 247 276 303 316 328 311 313 322 320 321 337 341 341 341 341 342 341 338 332 324
237 245 257 260 255 252 251 244 249 264 276 304 309 344 186 242 294 258 235 244 287 290 315 320 307 328 326 320 330 336 342 344 338 338 339 340 338 335
229 242 257 254 254 265 266 261 261 276 255 269 276 329 346 347 341 335 312 260 259 274 275 296 294 304 296 306 318 326 333 338 339 338 343 345 342 338
232 237 245 245 247 272 261 318 359 287 262 265 286 318 338 346 346 346 349 345 328 293 273 285 284 287 295 301 306 320 332 338 337 335 340 340 341 335
235 229 241 247 250 242 230 76 190 251 273 268 274 315 334 344 347 358 11 22 17 3 341 315 303 293 290 285 293 310 324 330 338 338 333 330 328 328
237 216 211 205 220 217 229 234 254 274 261 263 292 321 341 348 350 350 356 14 13 1 4 7 350 323 309 306 297 303 315 317 327 334 332 329 337 349
222 218 213 224 223 220 243 269 268 270 270 275 269 300 334 347 353 359 7 6 356 349 355 1 6 6 346 316 309 314 320 326 324 327 327 330 344 358
207 206 215 225 224 225 233 255 258 246 260 250 243 251 264 290 346 356 15 19 13 358 357 356 359 355 355 13 351 320 332 331 330 332 332 339 353 1
219 218 224 226 227 226 229 242 248 243 237 227 227 228 239 268 328 351 7 17 7 359 353 346 340 347 348 341 346 354 334 327 335 343 346 345 343 348
237 232 230 228 226 228 229 234 230 210 204 210 206 211 214 213 272 338 326 343 353 351 349 347 344 341 329 315 309 324 339 334 340 345 348 352 350 355
252 248 243 236 231 229 227 223 217 208 207 207 202 210 219 210 212 317 310 315 342 340 340 337 338 339 338 340 339 340 347 356 353 343 344 350 353 359
256 253 249 239 233 224 213 206 202 201 201 205 212 217 224 217 202 222 232 217 329 353 348 343 339 341 347 355 358 347 348 355 9 12 9 2 338 340
248 251 248 238 235 222 209 198 197 198 199 199 206 210 203 203 207 203 262 183 92 31 7 354 350 356 3 9 9 0 355 355 3 13 18 21 31 34
Height
1451 1451 1450 1450 1450 1451 1451 1451 1452 1450 1448 1448 1447 1446 1445 1445 1444 1444 1443 1442 1442 1441 1440 1439 1438 1437 1437 1436 1434 1433 1432 1432 1432 1432 1431 1431 1431 1430
1448 1447 1447 1447 1446 1446 1447 1447 1447 1447 1445 1444 1443 1443 1442 1441 1441 1440 1439 1439 1438 1437 1437 1435 1435 1434 1432 1432 1431 1429 1428 1428 1428 1428 1427 1427 1427 1426
1444 1444 1443 1443 1443 1443 1443 1443 1443 1443 1441 1440 1440 1439 1439 1438 1437 1437 1436 1435 1434 1434 1433 1432 1431 1430 1429 1428 1427 1425 1425 1424 1424 1424 1423 1422 1422 1422
1440 1440 1440 1440 1439 1440 1439 1439 1439 1439 1438 1437 1436 1436 1435 1435 1434 1433 1433 1432 1431 1430 1429 1429 1428 1426 1426 1424 1423 1422 1421 1421 1420 1419 1419 1418 1418 1417
1437 1437 1436 1436 1436 1436 1436 1436 1436 1435 1435 1434 1433 1432 1432 1432 1431 1430 1429 1428 1428 1427 1426 1425 1424 1423 1422 1421 1420 1419 1418 1417 1416 1415 1415 1414 1414 1413
1434 1433 1433 1432 1432 1432 1432 1432 1432 1432 1432 1431 1430 1430 1429 1428 1428 1427 1426 1425 1424 1424 1423 1422 1421 1420 1419 1418 1417 1416 1415 1413 1412 1411 1411 1410 1410 1409
1430 1430 1429 1429 1429 1429 1429 1429 1429 1429 1428 1428 1428 1427 1426 1425 1425 1424 1423 1422 1421 1421 1420 1419 1418 1417 1416 1414 1413 1412 1411 1410 1409 1408 1407 1406 1405 1405
1427 1426 1426 1426 1425 1425 1426 1426 1426 1426 1425 1425 1425 1424 1423 1423 1422 1422 1421 1420 1419 1419 1417 1416 1416 1414 1413 1411 1410 1409 1408 1406 1405 1404 1403 1402 1401 1401
1424 1423 1423 1422 1422 1422 1422 1422 1422 1422 1422 1423 1422 1422 1421 1421 1420 1419 1419 1419 1418 1417 1416 1413 1413 1411 1410 1409 1407 1406 1405 1403 1402 1400 1399 1398 1397 1397
1421 1421 1420 1420 1420 1420 1419 1419 1418 1418 1419 1419 1419 1419 1419 1419 1418 1418 1417 1416 1415 1415 1414 1411 1409 1408 1407 1406 1405 1403 1402 1400 1398 1397 1395 1394 1394 1393
1418 1418 1418 1418 1417 1417 1417 1416 1415 1416 1416 1416 1416 1416 1416 1416 1415 1415 1414 1413 1412 1412 1412 1410 1407 1406 1404 1403 1402 1401 1399 1397 1395 1394 1392 1391 1391 1390
1415 1415 1415 1415 1415 1414 1414 1414 1413 1413 1413 1413 1414 1413 1413 1413 1413 1413 1412 1411 1410 1409 1409 1408 1406 1405 1402 1400 1400 1398 1396 1394 1392 1391 1390 1389 1388 1387
1413 1413 1413 1412 1412 1412 1412 1412 1411 1411 1411 1411 1411 1411 1411 1411 1411 1410 1410 1409 1408 1407 1407 1406 1404 1403 1402 1399 1396 1395 1394 1392 1390 1388 1387 1387 1386 1385
1411 1411 1411 1410 1410 1410 1410 1409 1409 1409 1409 1409 1409 1409 1408 1408 1408 1408 1407 1407 1406 1406 1405 1404 1403 1402 1400 1397 1395 1393 1391 1390 1388 1386 1385 1384 1383 1382
1409 1409 1409 1409 1408 1408 1408 1408 1407 1407 1407 1407 1407 1407 1407 1407 1406 1406 1405 1405 1404 1404 1403 1402 1402 1400 1399 1396 1394 1391 1390 1388 1386 1385 1383 1382 1381 1380
1407 1407 1407 1406 1406 1406 1406 1406 1406 1406 1406 1406 1406 1405 1405 1405 1404 1404 1403 1403 1402 1401 1401 1400 1399 1398 1396 1394 1392 1390 1389 1387 1385 1384 1382 1380 1379 1378
1404 1404 1404 1404 1404 1404 1404 1404 1404 1404 1404 1404 1404 1404 1404 1403 1403 1402 1402 1402 1401 1399 1398 1398 1396 1395 1394 1393 1391 1390 1388 1386 1385 1383 1380 1379 1377 1376
1403 1402 1402 1402 1402 1402 1402 1402 1402 1402 1402 1402 1402 1402 1402 1402 1401 1401 1401 1401 1400 1399 1397 1396 1395 1393 1392 1391 1391 1389 1387 1386 1384 1382 1380 1378 1377 1376
1400 1400 1400 1400 1400 1400 1401 1401 1401 1401 1401 1401 1401 1401 1401 1400 1400 1400 1400 1400 1399 1398 1397 1396 1395 1394 1392 1390 1390 1390 1388 1385 1383 1381 1380 1378 1377 1376
1397 1397 1398 1398 1398 1398 1399 1399 1399 1399 1399 1399 1399 1400 1399 1399 1399 1399 1399 1399 1398 1397 1397 1396 1395 1394 1393 1392 1390 1388 1388 1386 1383 1381 1380 1378 1378 1377
1395 1395 1395 1396 1396 1396 1396 1397 1397 1397 1397 1398 1398 1398 1398 1398 1398 1398 1398 1398 1398 1397 1396 1395 1395 1394 1393 1392 1390 1388 1387 1386 1385 1382 1380 1378 1377 1377
1392 1393 1393 1393 1394 1394 1394 1395 1395 1395 1396 1396 1396 1397 1397 1397 1398 1398 1398 1397 1397 1397 1396 1395 1394 1393 1393 1391 1390 1388 1387 1386 1385 1383 1382 1381 1380 1378
1390 1391 1391 1391 1391 1391 1392 1392 1393 1394 1394 1395 1395 1395 1396 1396 1397 1397 1397 1397 1396 1396 1396 1395 1394 1393 1392 1392 1390 1389 1387 1386 1385 1383 1383 1382 1381 1380